Flag for Austria Weather past 2 weeks in Oberpullendorf, Burgenland, Austria

Now
68 °F

Passing clouds.


Feels Like: 68 °F
Forecast: 51 / 76 °F
Wind: 2 mph from East

Location: Eisenstadt

Current Time: Sep 19, 2014 at 8:00:39 PM

Latest Report: Sep 19, 2014 at 7:00 PM


Visibility: 6 mi

Pressure: 29.97 "Hg

Humidity: 76%

Dew point: 60 °F

Location of OberpullendorfLocation

Historic Weather in Oberpullendorf — Graph

°F

Oberpullendorf temperature yesterday

Maximum temperature yesterday: 71 °F (at 3:00 PM)
Minimum temperature yesterday: 51 °F (at 7:00 AM)
Average temperature yesterday: 60 °F

Past Weeks' High & Low Weather Summary

 TemperatureHumidityPressure
High78 °F (Sep 9, 2:00 PM)99% (Sep 9, 9:00 AM)30.09 "Hg (Sep 9, 9:00 AM)
Low51 °F (Sep 18, 7:00 AM)53% (Sep 17, 3:00 PM)29.77 "Hg (Sep 12, 5:00 AM)
Average63 °F84%29.98 "Hg
* Reported Sep 4 6:00 PM — Sep 19 6:00 PM, Oberpullendorf, Weather by CustomWeather, © 2014

Note: Actual official high and low records may vary slightly from our data, if they occured in-between our weather recording intervals... More about our weather records

Advertising

Oberpullendorf weather history for previous 24 hours

 ConditionsComfort  
Time TempWeatherWind HumidityBarometerVisibility
6:00 PM
Sep 19
71 °FMild.6 mph67%29.96 "HgN/A
5:00 PM72 °FPartly sunny.6 mph66%29.98 "Hg6 mi
4:00 PM71 °FMild.5 mph66%29.98 "HgN/A
3:00 PM71 °FMild.5 mph66%29.99 "HgN/A
2:00 PM70 °FScattered clouds.5 mph69%30.00 "Hg6 mi
1:00 PM68 °FMild.3 mph73%30.01 "HgN/A
12:00 PM66 °FMild.5 mph75%30.01 "HgN/A
11:00 AM62 °FOvercast.2 mph82%30.03 "Hg6 mi
10:00 AM58 °FCool.2 mph90%30.03 "HgN/A
9:00 AM57 °FCool.3 mph92%30.02 "HgN/A
8:00 AM57 °FCool.2 mph93%30.01 "HgN/A
7:00 AM56 °FOvercast.5 mph95%30.00 "Hg5 mi
6:00 AM56 °FPassing clouds.3 mph94%30.00 "Hg6 mi
5:00 AM57 °FPassing clouds.3 mph92%30.00 "Hg6 mi
2:00 AM57 °FOvercast.3 mph92%30.03 "Hg6 mi
11:00 PM
Sep 18
56 °FPassing clouds.1 mph90%30.06 "Hg12 mi
10:00 PM57 °FCool.1 mph89%30.06 "HgN/A
9:00 PM58 °FCool.1 mph85%30.05 "HgN/A
8:00 PM62 °FPassing clouds.3 mph77%30.04 "Hg12 mi
Weather by CustomWeather, © 2014

See weather overviewHow to use our weather pages